GW0906 Weather Reports


time (UTC)temp
F
wind
direction
speed
knots
gust
knots
rain 1hr
in
rain 24hr
in
rain mn
in
humidity
%
barometer
mb
20260504081558 36 0 0.0 0.0 0.00 0.00 0.00 89 1012.2
20260504070104 36 0 0.0 0.0 0.00 0.00 0.00 87 1011.9
20260504044554 39 0 0.0 0.9 0.00 0.00 0.00 81 1011.8
20260504043059 39 0 0.0 0.9 0.00 0.00 0.00 80 1011.6
20260504041553 40 0 0.0 1.7 0.00 0.00 0.00 80 1011.7
20260504040052 40 0 0.0 1.7 0.00 0.00 0.00 79 1011.5
20260504034608 41 207 0.9 1.7 0.00 0.00 0.00 78 1011.3
20260504033056 41 207 0.0 0.9 0.00 0.00 0.00 77 1011.4
20260504031549 42 0 0.0 0.0 0.00 0.00 0.00 77 1011.4
20260504030056 43 0 0.0 0.9 0.00 0.00 0.00 76 1011.3
20260504024553 43 207 0.0 0.9 0.00 0.00 0.00 75 1011.1
20260504023052 44 0 0.0 1.7 0.00 0.00 0.00 73 1011.2
20260504021554 44 208 0.0 0.9 0.00 0.00 0.00 70 1011.1
20260504020048 46 0 0.0 0.0 0.00 0.00 0.00 68 1011.1
20260504014601 46 0 0.0 1.7 0.00 0.00 0.00 67 1011.0
20260504013053 47 0 0.0 0.9 0.00 0.00 0.00 65 1011.0
20260504011552 48 0 0.0 1.7 0.00 0.00 0.00 64 1011.0
20260504010058 49 0 0.0 1.7 0.00 0.00 0.00 61 1010.9
20260504004550 51 0 0.9 2.6 0.00 0.00 0.00 61 1010.7
20260504003053 53 0 1.7 3.5 0.00 0.00 0.00 55 1010.6
20260504001551 54 321 1.7 5.2 0.00 0.00 0.00 48 1010.4
20260504000049 56 305 0.9 7.8 0.00 0.00 0.00 42 1010.2
20260503234550 56 300 1.7 10.4 0.00 0.00 0.00 41 1010.0
20260503233049 57 263 2.6 6.1 0.00 0.00 0.00 39 1009.9
20260503231549 57 273 5.2 10.4 0.00 0.00 0.00 39 1009.9
20260503230051 57 302 1.7 6.1 0.00 0.00 0.00 37 1009.8
20260503224550 58 311 5.2 9.6 0.00 0.00 0.00 38 1009.7
20260503223050 58 288 3.5 11.3 0.00 0.00 0.00 37 1009.6
20260503221554 59 310 9.6 13.9 0.00 0.00 0.00 31 1009.5
20260503220053 58 293 6.1 13.9 0.00 0.00 0.00 33 1009.3
20260503214551 59 355 3.5 13.9 0.00 0.00 0.00 31 1009.4
20260503213107 59 302 4.3 13.9 0.00 0.00 0.00 34 1009.2
20260503211550 60 327 8.7 15.6 0.00 0.00 0.00 31 1009.2
20260503204548 59 284 7.8 16.5 0.00 0.00 0.00 33 1009.0
20260503203101 58 303 6.1 13.9 0.00 0.00 0.00 38 1009.2
20260503201550 59 294 5.2 15.6 0.00 0.00 0.00 32 1009.3
20260503200057 58 284 8.7 17.4 0.00 0.00 0.00 36 1009.3
20260503194554 57 334 5.2 9.6 0.00 0.00 0.00 38 1009.4
20260503193101 56 352 6.1 17.4 0.00 0.00 0.00 38 1009.7
20260503191552 56 338 8.7 13.0 0.00 0.00 0.00 40 1010.0
20260503190057 56 318 9.6 14.8 0.00 0.00 0.00 36 1010.1
20260503184606 56 315 6.1 15.6 0.00 0.00 0.00 41 1010.1
20260503183109 56 311 8.7 14.8 0.00 0.00 0.00 41 1010.4
20260503181603 53 344 5.2 10.4 0.00 0.00 0.00 45 1010.5
20260503180055 53 302 8.7 13.0 0.00 0.00 0.00 42 1010.8
20260503174554 54 339 7.8 15.6 0.00 0.00 0.00 43 1010.8
20260503173100 53 298 7.0 15.6 0.00 0.00 0.00 45 1010.9
20260503171549 52 288 6.1 13.9 0.00 0.00 0.00 46 1011.2